This demonstration page uses our WeatherBlox Daily Observations layout. Learn more.

Left ArrowRight Arrow

47.50024, -111.30081

Hourly Observations for April 21, 2018

Temp ( °F °C ) Dew Point ( °F °C ) Humidity (%) Winds ( mph kmh ) Pressure ( in mb ) Visibility ( mi km ) Precip ( " mm )
12:53 am 00:53 Clear 42 5.6 23 -5 47 47 SSW 7 11 30.08 1019 10 16 0.00 0.00
1:53 am 01:53 Clear 38 3.3 24 -4.4 57 57 SW 7 11 30.07 1018 10 16 0.00 0.00
2:53 am 02:53 Clear 37 2.8 26 -3.3 65 65 SSW 10 17 30.05 1018 10 16 0.00 0.00
3:53 am 03:53 Clear 38 3.3 25 -3.9 60 60 SSW 9 15 30.03 1017 10 16 0.00 0.00
4:53 am 04:53 Clear 39 3.9 26 -3.3 60 60 SSW 13 20 30.01 1016 10 16 0.00 0.00
5:53 am 05:53 Clear 39 3.9 27 -2.8 62 62 S 12 19 30.00 1016 10 16 0.00 0.00
6:53 am 06:53 Sunny 42 5.6 28 -2.2 58 58 SSW 13 20 29.98 1015 10 16 0.00 0.00
7:53 am 07:53 Sunny 50 10 28 -2.2 43 43 SSW 16 26 29.97 1015 10 16 0.00 0.00
8:53 am 08:53 Sunny 54 12.2 27 -2.8 35 35 SW 20 31 29.98 1015 10 16 0.00 0.00
9:53 am 09:53 Mostly Sunny 58 14.4 27 -2.8 31 31 SW 26 43 29.99 1016 10 16 0.00 0.00
10:53 am 10:53 Partly Cloudy 60 15.6 29 -1.7 31 31 SW 26 43 29.99 1016 10 16 0.00 0.00
11:53 am 11:53 Sunny 59 15 31 -0.6 35 35 WSW 24 39 29.98 1015 10 16 0.00 0.00
12:53 pm 12:53 Sunny 63 17.2 30 -1.1 29 29 WSW 29 46 29.95 1014 10 16 0.00 0.00
1:53 pm 13:53 Sunny 64 17.8 29 -1.7 27 27 WSW 38 61 29.93 1014 10 16 0.00 0.00
2:53 pm 14:53 Sunny 64 17.8 28 -2.2 26 26 WSW 35 56 29.94 1014 10 16 0.00 0.00
3:53 pm 15:53 Mostly Sunny 62 16.7 26 -3.3 25 25 WSW 37 59 29.96 1015 10 16 0.00 0.00
4:53 pm 16:53 Sunny 61 16.1 24 -4.4 24 24 WSW 28 44 29.98 1015 10 16 0.00 0.00
5:53 pm 17:53 Sunny 60 15.6 24 -4.4 25 25 WSW 30 48 29.99 1016 10 16 0.00 0.00
6:53 pm 18:53 Sunny 58 14.4 21 -6.1 24 24 W 20 31 30.01 1016 10 16 0.00 0.00
7:53 pm 19:53 Sunny 53 11.7 21 -6.1 28 28 W 25 41 30.01 1016 10 16 0.00 0.00
8:21 pm 20:21 Sunny 51 10.6 20 -6.7 29 29 NW 14 22 30.03 1017 10 16 0.00 0.00
8:40 pm 20:40 Clear 50 10 21 -6.1 32 32 W 16 26 30.03 1017 10 16 0.00 0.00
8:53 pm 20:53 Clear 48 8.9 21 -6.1 34 34 WNW 10 17 30.07 1018 10 16 0.00 0.00
9:53 pm 21:53 Clear 44 6.7 21 -6.1 40 40 NNW 6 9 30.11 1020 10 16 0.00 0.00
10:53 pm 22:53 Clear 43 6.1 20 -6.7 40 40 NE 6 9 30.13 1020 10 16 0.00 0.00
11:53 pm 23:53 Clear 42 5.6 24 -4.4 49 49 SE 8 13 30.13 1020 10 16 0.00 0.00

Powered by AerisWeather